www.pogodaiklimat.ru

Погода и климат >> Архив погоды >> Россия >> Приморский край >> Кировский


ПОГОДА в Кировском

  • Прогноз погоды в Кировском
  • Монитор погоды в Кировском

АРХИВ ПОГОДЫ в Кировском

Время (UTC), дата Ветер
(напр.,м/с)
 
Видим.   Явления Облачность Т
(С)
Тd
(С)
f
(%)
Тe
(С)
Тes
(С)
Комфортность P
(гПа)
Po
(гПа)
Тmin
(С)
Tmax
(С)
R
(мм)
R24
(мм)
S
(см)
03 12.09 С 1 50 км 1/1 1000 м
[Cu hum]
+18.8 +5.5 42 +20 +33 опасность
простуды
1020.5 1008.9
06 12.09 СЗ 2 50 км 6/0
[Ci fib]
+20.7 +7.0 41 +22 +28 комфорт 1018.9 1007.4
09 12.09 З 1 50 км 9/0
[Cc]
+18.6 +9.7 56 +20 +20 1018.4 1006.8 +21.3
12 12.09 штиль 0 20 км 8/0
[Ci fib]
+11.9 +10.1 89 +11 +11 1019.3 1007.4
18 12.09 В 1 20 км ясно +9.4 +7.9 90 +9 +9 1017.6 1005.7
21 12.09 Ю 1 50 км ясно +10.5 +8.7 89 +10 +10 1018.0 1006.1 +7.4
00 13.09 Ю 3 50 км 3/0
[Ci fib]
+16.7 +9.8 64 +17 +21 1017.0 1005.3
03 13.09 Ю 3 50 км 10/0
[Ci fib]
+22.0 +10.1 47 +24 +32 комфорт 1014.7 1003.3
06 13.09 Ю 2 50 км 10/8 600 м
[Sc Ac trans]
+22.6 +10.3 46 +24 +25 комфорт 1012.2 1000.8
09 13.09 ЮЗ 1 50 км 8/6 1000 м
[Sc Ac trans]
+20.2 +10.7 54 +23 +23 комфорт 1011.5 1000.1 +23.6
12 13.09 Ю 2 50 км 10/1 1000 м
[Sc Ac trans]
+17.6 +10.0 61 +18 +18 1011.5 1000.0
15 13.09 Ю 2 50 км в посл. час дождь 10/6 1000 м
[Sc Ac As]
+16.0 +8.0 59 +16 +16 1009.8 998.2
18 13.09 Ю 2 20 км слаб. ливневой дождь 10/10 600 м
[Cb cap]
+12.8 +11.2 90 +12 +12 1009.1 997.4
21 13.09 Ю 1 10 км слаб. ливневой дождь 10/10 600 м
[Cb cap]
+13.2 +12.8 97 +13 +13 1009.6 997.9 +12.6 8
00 14.09 С 1 10 км слаб. ливневой дождь 10/10 600 м
[Cb cap]
+14.9 +14.6 98 +15 +15 1011.1 999.4
03 14.09 СЗ 2 50 км {ливн. осадки} 9/6 600 м
[Cb cap Ac trans]
+17.4 +13.0 75 +18 +20 1011.3 999.8
06 14.09 С 3 50 км {ливн. осадки} 3/3 1000 м
[Cu hum]
+20.3 +10.9 55 +22 +26 комфорт 1010.6 999.2
09 14.09 СЗ 1 50 км ясно +18.3 +9.9 58 +20 +20 1011.9 1000.4 +20.8 6
12 14.09 штиль 0 50 км ясно +11.3 +10.5 95 +11 +11 1014.5 1002.6
15 14.09 штиль 0 50 км ясно +8.3 +8.0 98 +7 +7 1014.9 1002.9
18 14.09 ЮЗ 1 50 км ясно +7.1 +6.8 98 +6 +6 1015.3 1003.3
21 14.09 штиль 0 500 м туман ясно +6.5 +6.2 98 +5 +5 1016.3 1004.2 +6.0
00 15.09 Ю 2 50 км {туман} ясно +13.8 +10.7 82 +13 +19 1015.9 1004.2
03 15.09 Ю 2 50 км ясно +21.0 +7.5 42 +23 +34 комфорт 1014.0 1002.6
06 15.09 ЮЗ 2 50 км ясно +22.8 +6.6 35 +23 +30 комфорт 1011.7 1000.3
09 15.09 штиль 0 50 км 1/0
[Ci fib]
+19.8 +9.5 51 +21 +21 комфорт 1010.7 999.3 +23.0
12 15.09 штиль 0 20 км 3/0
[Ac trans Ci fib]
+11.1 +10.7 97 +10 +10 1011.3 999.5
15 15.09 Ю 2 20 км 3/0
[Ac trans Ci sp]
+11.6 +10.0 90 +10 +10 1012.0 1000.2
18 15.09 Ю 2 20 км 3/0
[Ci sp]
+11.4 +9.6 89 +10 +10 1011.2 999.5
21 15.09 Ю 2 50 км 1/0
[Ac trans]
+11.0 +8.3 83 +10 +10 1011.4 999.6 +9.5
00 16.09 ЮЗ 2 50 км 3/0
[Ac cast]
+16.6 +10.3 66 +17 +21 1012.4 1000.8
03 16.09 СЗ 2 50 км 3/3 1000 м
[Cu med, cong]
+20.8 +11.2 54 +23 +31 комфорт 1011.9 1000.5
06 16.09 СЗ 4 50 км 3/1 1000 м
[Cu hum Ac trans]
+19.3 +7.4 46 +20 +23 1012.3 1000.8
09 16.09 С 1 50 км 1/0
[Ac trans]
+15.6 +6.1 53 +16 +16 1013.1 1001.5 +20.9
12 16.09 В 1 20 км ясно +8.6 +6.2 85 +8 +8 1015.6 1003.6
15 16.09 З 1 20 км ясно +5.2 +4.7 97 +4 +4 1017.0 1004.9
18 16.09 штиль 0 20 км ясно +3.7 +3.4 98 +2 +2 1017.5 1005.3
21 16.09 штиль 0 20 км ясно +2.2 +1.9 98 +1 +1 1018.3 1006.0 +2.0
00 17.09 З 1 50 км ясно +11.1 +6.0 71 +11 +17 1018.1 1006.3
03 17.09 С 1 50 км 1/1 1000 м
[Cu hum]
+16.9 +2.6 38 +18 +30 опасность
простуды
1016.6 1005.0
06 17.09 В 1 50 км ясно +18.5 +1.5 32 +20 +27 1014.1 1002.6
09 17.09 ЮЗ 1 50 км ясно +15.6 +6.4 54 +16 +16 1012.7 1001.0 +19.0
12 17.09 штиль 0 20 км ясно +8.2 +6.8 91 +7 +7 1012.1 1000.1
15 17.09 Ю 2 20 км 1/0
[Ac trans]
+8.8 +5.7 81 +7 +7 1009.4 997.5
18 17.09 Ю 2 20 км 9/0
[Ac cast Ci fib]
+10.9 +5.4 69 +10 +10 1006.6 994.9
21 17.09 СЗ 4
{12}
20 км слаб. ливневой дождь, в посл. час гроза 10/10 600 м
[Cb cap]
+9.7 +8.4 92 +7 +7 1008.4 996.6 +6.3 7
00 18.09 З 3 20 км слаб. ливневой дождь {гроза} 9/9 600 м
[Cb cap]
+10.3 +6.1 75 +8 +9 1011.2 999.3
03 18.09 СЗ 7-13
{16}
50 км {ливн. осадки} 8/8 600 м
[Cu hum]
+9.7 +0.3 52 +6 +7 1013.3 1001.4
06 18.09 З 6-11
{13}
50 км {ливн. осадки} 8/8 600 м
[Cb cap]
+12.3 -2.0 37 +10 +11 1012.0 1000.2
09 18.09 СЗ 3
{11}
50 км 6/5 600 м
[Cb cap Ac trans]
+9.1 +0.8 56 +7 +7 1013.0 1001.1 +12.5 1
12 18.09 З 3 50 км {ливн. осадки} 9/6 600 м
[Cb cap Ac trans]
+8.5 +0.7 58 +6 +6 1014.1 1002.1
15 18.09 СЗ 2 50 км 10/3 1000 м
[Sc Ac trans]
+8.2 +0.6 59 +7 +7 1012.8 1000.9
18 18.09 ЮЗ 2 50 км 1/1 1000 м
[Cu hum]
+5.3 +1.1 74 +3 +3 1011.5 999.4
21 18.09 ЮЗ 3 50 км 3/1 1000 м
[Cu hum Ac trans]
+4.9 +1.8 80 +1 +1 1011.4 999.3 +4.7 0.1
00 19.09 З 6-12
{13}
50 км 5/0
[Ac lent Ci fib]
+10.6 -3.4 37 +8 +9 1011.1 999.3

 

Местоположение метеостанции Кировский (Приморский край, Россия): широта 45.10 долгота 133.50 высота над уровнем моря 98 м.

В архиве по умолчанию представлена погода в Кировском за последнюю неделю. Архивные данные за месяц целиком и за предыдущие месяцы, начиная с января 2011 года, Вы можете получить, выбрав интересующий диапазон дат из раскрывающегося списка и нажав кнопку "Ввод!".


*Определитесь, кто Вы:
робот инопланетянин человек

Внимание! Время в таблицах - всемирное. Для получения местного времени необходимо прибавить поправку, которая равна 10 ч.

Смотрите также архив погоды в соседних городах и на ближайших метеорологических станциях:

Погода в Лесозаводске (Приморский край, Россия) (44 км)
Погода в Свиягино (Приморский край, Россия) (52 км)
Погода в Малиново (Приморский край, Россия) (65 км)
Погода в Спасск-Дальнем (Приморский край, Россия) (76 км)
Погода в Хулине (Хэйлунцзян, Китай) (86 км)
Погода в Дальнереченске (Приморский край, Россия) (87 км)
Погода в Чугуевке (Приморский край, Россия) (108 км)
Погода в Турьем Роге (Приморский край, Россия) (120 км)
Погода в Астраханке (Приморский край, Россия) (125 км)
Погода в Анучино (Приморский край, Россия) (132 км)

Пояснения к столбцам:

Ветер - указаны скорость ветра в м/с - средняя за 10 мин, порывы в срок и между сроками (в фигурных скобках) и направление, откуда дует ветер: С - северный, СВ - северо-восточный, В - восточный, ЮВ - юго-восточный, Ю - южный, ЮЗ - юго-западный, З - западный, СЗ - северо-западный.
Видимость - горизонтальная дальность видимости в метрах или километрах. При видимости от 1 до 10 км при отсутствии осадков обычно наблюдается дымка, при ухудшении видимости до 1 км и менее - туман. В сухую погоду видимость может ухудшаться дымом, пылью или мглою.
Явления - указаны атмосферные явления, наблюдавшиеся в срок или в последний час перед сроком; фигурными скобками обозначены явления, наблюдавшиеся между сроками (за 1-3 часа до срока); квадратными скобками обозначены град или гололедные отложения с указанием их диаметра в мм.
Облачность - указаны через наклонную черту общая и нижняя облачность в баллах и высота нижней границы облаков в метрах; квадратными скобками обозначены формы облаков: Ci - перистые, Cs - перисто-слоистые, Cc - перисто-кучевые, Ac - высококучевые, As - высокослоистые, Sc - слоисто-кучевые, Ns - слоисто-дождевые, Cu - кучевые, Cb - кучево-дождевые. Подробнее классификацию облаков см. в Атласе облаков (PDF).
T - Температура воздуха - температура, измеренная на высоте 2 м над землей.
Td - Температура точки росы - температура, при понижении до которой содержащийся в воздухе водяной пар достигнет насыщения.
f - Относительная влажность воздуха - влажноcть воздуха, измеренная на высоте 2 м над землей.
Te - Эффективная температура - температура, которую ощущает одетый по сезону человек в тени. Характеристика душности погоды. При расчете учитывается влияние влажности воздуха и скорости ветра на теплоощущения человека.
Tes - Эффективная температура на солнце - температура, которую ощущает человек, с поправкой на солнечный нагрев. Характеристика знойности погоды. Зависит от высоты солнца над горизонтом, облачности и скорости ветра. Ночью, в пасмурную погоду, а также при ветре 12 м/с и более поправка равна нулю.
P - Атмосферное давление - приведенное к уровню моря атмосферное давление.
Po - Атмосферное давление - измеренное на уровне метеостанции атмосферное давление.
Tmin - Минимальная температура - минимум температуры воздуха на высоте 2 м над землей.
Tmax - Максимальная температура - максимум температуры воздуха на высоте 2 м над землей.
R - Количество осадков - Количество выпавших осадков за период времени, мм. При наведении курсора мыши на число - период времени, за который выпало указанное количество осадков.
R24 - Количество осадков - Количество выпавших осадков за 24 часа, мм.
S - Снежный покров - Высота снежного покрова, см. При наведении курсора мыши на число - состояние снежного покрова и степень покрытия местности в баллах.